Location: *
(58.7167°N, 26.1833°E)
Time: 04:40:35
(UTC+00:00)

Spot 4 - Pass Details

Date: 25 August 2019
Orbit: 705 x 722 km, 98.3° (Epoch: 22 September)

Event Time Altitude Azimuth Distance (km) Brightness Sun altitude
Exits shadow 20:01:01 23° 125° (SE) 1,482 4.9 -15.4°
Maximum altitude 20:03:40 48° 63° (ENE) 942 4.4 -15.6°
Drops below altitude 10° 20:08:19 10° 350° (N) 2,216 7.5 -15.9°
Sets 20:10:39 0° 345° (NNW) 3,143 8.6 -16.1°
